CW4185 Weather Reports


Display with metric or nautical units.
time (UTC)temp
F
wind
direction
speed
MPH
gust
MPH
rain 1hr
in
rain 24hr
in
rain mn
in
humidity
%
barometer
mb
20260509120647 73 160 6.0 9.0 0.00 0.00 0.00 97 1010.2
20260509120146 72 184 4.0 7.0 0.00 0.00 0.00 96 1010.2
20260509115646 72 167 3.0 6.0 0.00 0.00 0.00 96 1010.2
20260509115147 72 165 3.0 6.0 0.00 0.00 0.00 96 1009.8
20260509114647 72 152 3.0 6.0 0.00 0.00 0.00 96 1010.2
20260509114150 72 163 3.0 5.0 0.00 0.00 0.00 96 1010.2
20260509113651 72 84 2.0 5.0 0.00 0.00 0.00 96 1009.8
20260509113150 72 150 2.0 4.0 0.00 0.00 0.00 95 1009.8
20260509112647 72 155 3.0 5.0 0.00 0.00 0.00 95 1009.8
20260509112150 72 163 2.0 4.0 0.00 0.00 0.00 95 1009.5
20260509111647 73 141 5.0 7.0 0.00 0.00 0.00 94 1009.5
20260509111148 73 185 3.0 6.0 0.00 0.00 0.00 94 1009.8
20260509110647 73 182 3.0 7.0 0.00 0.00 0.00 93 1009.8
20260509110152 73 168 6.0 7.0 0.00 0.00 0.00 93 1009.5
20260509105646 73 164 4.0 6.0 0.00 0.00 0.00 93 1009.5
20260509105148 73 168 4.0 8.0 0.00 0.00 0.00 93 1009.8
20260509104646 73 146 9.0 9.0 0.00 0.00 0.00 93 1009.5
20260509104147 73 150 3.0 8.0 0.00 0.00 0.00 93 1009.1
20260509103646 73 194 3.0 8.0 0.00 0.00 0.00 92 1009.8
20260509103146 73 176 5.0 7.0 0.00 0.00 0.00 92 1009.5
20260509102647 73 139 6.0 11.0 0.00 0.00 0.00 92 1009.1
20260509102146 73 147 9.0 13.0 0.00 0.00 0.00 92 1008.8
20260509101647 73 175 7.0 10.0 0.00 0.00 0.00 92 1009.1
20260509101150 73 172 4.0 12.0 0.00 0.00 0.00 91 1009.1
20260509100651 72 150 9.0 14.0 0.00 0.00 0.00 91 1009.1
20260509100146 72 135 6.0 12.0 0.00 0.00 0.00 91 1008.8
20260509095650 72 160 5.0 9.0 0.00 0.00 0.00 91 1009.1
20260509095146 72 161 3.0 7.0 0.00 0.00 0.00 91 1009.1
20260509094648 72 76 3.0 9.0 0.00 0.00 0.00 91 1009.1
20260509094146 72 128 8.0 10.0 0.00 0.00 0.00 91 1009.1
20260509093648 72 154 7.0 13.0 0.00 0.00 0.00 91 1009.1
20260509093149 72 152 5.0 7.0 0.00 0.00 0.00 91 1009.1
20260509092648 72 146 6.0 9.0 0.00 0.00 0.00 91 1009.1
20260509092147 72 125 4.0 8.0 0.00 0.00 0.00 90 1009.1
20260509091646 72 145 8.0 11.0 0.00 0.00 0.00 90 1009.1
20260509091147 72 149 7.0 9.0 0.00 0.00 0.00 90 1009.1
20260509090646 72 150 3.0 6.0 0.00 0.00 0.00 90 1009.5
20260509090151 72 144 4.0 9.0 0.00 0.00 0.00 90 1009.1
20260509085647 72 147 3.0 10.0 0.00 0.00 0.00 89 1009.5
20260509085148 72 163 3.0 10.0 0.00 0.00 0.00 89 1009.5
20260509084646 72 165 7.0 9.0 0.00 0.00 0.00 89 1009.8
20260509084146 72 150 5.0 8.0 0.00 0.00 0.00 89 1009.8
20260509083648 72 147 3.0 7.0 0.00 0.00 0.00 89 1009.8
20260509083148 72 146 5.0 8.0 0.00 0.00 0.00 90 1010.2
20260509082646 72 213 3.0 8.0 0.00 0.00 0.00 90 1010.2
20260509082147 72 150 4.0 7.0 0.00 0.00 0.00 89 1010.2
20260509081650 72 157 3.0 8.0 0.00 0.00 0.00 89 1010.5
20260509081150 72 158 3.0 6.0 0.00 0.00 0.00 89 1010.5
20260509080648 72 191 1.0 6.0 0.00 0.00 0.00 89 1010.5
20260509080148 72 117 4.0 7.0 0.00 0.00 0.00 89 1010.5
20260509075648 72 151 2.0 7.0 0.00 0.00 0.00 89 1010.8
20260509075148 72 153 3.0 7.0 0.00 0.00 0.00 89 1010.2
20260509074647 72 111 5.0 8.0 0.00 0.00 0.00 89 1010.2
20260509074147 72 118 3.0 6.0 0.00 0.00 0.00 88 1010.5
20260509073647 72 144 4.0 6.0 0.00 0.00 0.00 88 1011.2
20260509073148 72 160 4.0 5.0 0.00 0.00 0.00 88 1011.2
20260509072647 72 135 0.0 4.0 0.00 0.00 0.00 88 1011.2
20260509072148 72 328 2.0 3.0 0.00 0.00 0.00 89 1011.2
20260509071647 72 155 0.0 5.0 0.00 0.00 0.00 89 1011.2
20260509071147 72 158 0.0 4.0 0.00 0.00 0.00 90 1011.2
20260509070646 72 299 2.0 3.0 0.00 0.00 0.00 90 1011.2
20260509070150 72 50 1.0 5.0 0.00 0.00 0.00 90 1011.2
20260509065649 72 29 3.0 5.0 0.00 0.00 0.00 91 1011.5
20260509065146 72 85 0.0 3.0 0.00 0.00 0.00 91 1011.5
20260509064648 72 45 2.0 3.0 0.00 0.00 0.00 91 1011.5
20260509064147 72 2 2.0 4.0 0.00 0.00 0.00 93 1011.5
20260509063647 71 348 4.0 5.0 0.00 0.00 0.00 93 1011.9
20260509063147 71 323 5.0 5.0 0.00 0.00 0.00 94 1011.9
20260509062650 71 333 3.0 8.0 0.00 0.00 0.00 94 1011.9
20260509062146 71 337 4.0 5.0 0.00 0.00 0.00 93 1011.9
20260509061647 71 13 4.0 6.0 0.00 0.00 0.00 93 1011.5
20260509061149 71 8 2.0 4.0 0.00 0.00 0.00 93 1011.5
20260509060646 71 19 2.0 4.0 0.00 0.00 0.00 95 1011.5
20260509060149 71 336 0.0 3.0 0.00 0.00 0.00 96 1011.9
20260509055646 71 337 2.0 2.0 0.00 0.00 0.00 96 1011.9
20260509055147 70 306 1.0 3.0 0.00 0.00 0.00 97 1012.2
20260509054647 70 318 3.0 3.0 0.00 0.00 0.00 97 1012.2
20260509054146 70 315 3.0 4.0 0.00 0.00 0.00 96 1012.2
20260509053647 71 310 2.0 3.0 0.00 0.00 0.00 95 1011.9
20260509053147 71 269 0.0 1.0 0.00 0.00 0.00 95 1011.9
20260509052646 71 239 1.0 2.0 0.00 0.00 0.00 95 1011.9
20260509052148 71 251 1.0 2.0 0.00 0.00 0.00 95 1011.9
20260509051647 71 325 0.0 2.0 0.00 0.00 0.00 95 1011.9
20260509051147 71 269 1.0 3.0 0.00 0.00 0.00 95 1011.9
20260509050648 71 211 1.0 2.0 0.00 0.00 0.00 95 1011.9
20260509050147 71 216 1.0 2.0 0.00 0.00 0.00 95 1011.9
20260509045647 71 179 1.0 3.0 0.00 0.00 0.90 95 1011.9
20260509045147 71 214 1.0 4.0 0.00 0.00 0.90 95 1011.9
20260509044647 71 179 2.0 3.0 0.00 0.00 0.90 96 1011.9
20260509044148 71 180 3.0 4.0 0.00 0.00 0.90 96 1011.9
20260509043647 71 173 3.0 5.0 0.00 0.00 0.90 96 1011.9
20260509043149 71 157 4.0 5.0 0.00 0.00 0.90 96 1011.5
20260509042647 71 267 0.0 5.0 0.00 0.00 0.90 96 1011.5
20260509042147 71 174 3.0 6.0 0.00 0.00 0.90 96 1011.5
20260509041646 71 158 6.0 6.0 0.00 0.00 0.90 96 1011.5
20260509041146 71 172 2.0 7.0 0.00 0.00 0.90 96 1011.5
20260509040646 71 176 5.0 8.0 0.00 0.00 0.90 96 1011.2
20260509040146 71 175 4.0 8.0 0.00 0.00 0.90 96 1011.5
20260509035646 71 165 5.0 9.0 0.00 0.00 0.90 96 1011.2
20260509035147 71 160 5.0 10.0 0.00 0.00 0.90 96 1011.5
20260509034647 71 163 4.0 6.0 0.00 0.00 0.90 96 1011.2
20260509034148 71 181 3.0 8.0 0.00 0.00 0.90 96 1011.5
20260509033646 71 142 4.0 9.0 0.00 0.00 0.90 97 1011.2
20260509033147 71 182 2.0 5.0 0.00 0.00 0.90 96 1011.2
20260509032647 71 147 6.0 9.0 0.00 0.00 0.90 96 1011.2
20260509032146 71 146 7.0 7.0 0.00 0.00 0.90 96 1011.5
20260509031646 71 138 3.0 4.0 0.00 0.00 0.90 96 1011.5
20260509031147 71 178 0.0 4.0 0.00 0.00 0.90 96 1011.5
20260509030648 71 208 2.0 3.0 0.00 0.00 0.90 96 1011.5
20260509030146 71 255 0.0 3.0 0.00 0.00 0.90 96 1011.5
20260509025646 71 50 0.0 3.0 0.00 0.00 0.90 96 1011.9
20260509025146 71 333 1.0 3.0 0.00 0.00 0.90 97 1011.5
20260509024647 70 343 0.0 3.0 0.00 0.00 0.90 97 1011.2
20260509024147 70 173 0.0 3.0 0.00 0.00 0.90 97 1011.5
20260509023646 70 0 1.0 2.0 0.00 0.00 0.90 96 1011.5
20260509023146 70 210 1.0 2.0 0.00 0.00 0.90 96 1011.5
20260509022649 70 31 2.0 5.0 0.00 0.00 0.90 97 1011.2
20260509022150 70 62 2.0 5.0 0.00 0.00 0.90 97 1010.8
20260509021652 70 137 1.0 4.0 0.00 0.00 0.90 97 1010.8
20260509021146 70 116 3.0 6.0 0.00 0.00 0.90 97 1010.5
20260509020648 70 140 4.0 7.0 0.00 0.00 0.90 97 1010.8
20260509020148 70 35 1.0 4.0 0.00 0.00 0.90 97 1010.8
20260509015647 70 150 1.0 10.0 0.00 0.00 0.90 97 1010.8
20260509015149 70 148 5.0 5.0 0.00 0.00 0.90 98 1010.5
20260509014647 70 130 5.0 10.0 0.00 0.00 0.90 98 1010.5
20260509014148 69 125 2.0 11.0 0.00 0.00 0.90 98 1010.8
20260509013646 69 148 9.0 9.0 0.00 0.00 0.90 98 1010.8
20260509013147 69 161 5.0 8.0 0.00 0.00 0.90 98 1010.5
20260509012647 69 96 4.0 8.0 0.00 0.00 0.90 98 1010.5
20260509012148 69 108 2.0 7.0 0.00 0.00 0.90 98 1010.5
20260509011647 69 147 4.0 5.0 0.00 0.00 0.90 98 1010.5
20260509011149 69 58 3.0 5.0 0.00 0.00 0.90 97 1010.8
20260509010647 69 100 4.0 8.0 0.00 0.00 0.90 97 1010.8
20260509010149 69 142 3.0 9.0 0.00 0.00 0.90 97 1010.5
20260509005647 70 103 3.0 8.0 0.00 0.00 0.90 97 1010.5
20260509005147 70 100 1.0 10.0 0.00 0.00 0.90 97 1010.8
20260509004646 70 124 5.0 7.0 0.00 0.00 0.90 97 1010.8
20260509004148 70 164 4.0 6.0 0.00 0.00 0.90 97 1010.8
20260509003646 70 296 1.0 5.0 0.00 0.00 0.90 97 1011.2
20260509003147 70 103 2.0 5.0 0.00 0.00 0.90 97 1011.2
20260509002647 70 64 4.0 6.0 0.00 0.00 0.90 97 1011.2
20260509002148 70 67 3.0 5.0 0.00 0.00 0.90 97 1011.2
20260509001646 70 25 2.0 5.0 0.00 0.00 0.90 97 1011.2
20260509001147 70 24 2.0 3.0 0.00 0.00 0.90 97 1011.2
20260509000647 70 333 1.0 3.0 0.00 0.00 0.90 97 1011.5
20260509000147 70 355 2.0 5.0 0.00 0.00 0.90 97 1011.5
20260508235649 70 306 1.0 4.0 0.00 0.00 0.90 97 1011.9
20260508235151 69 333 3.0 3.0 0.00 0.00 0.90 97 1011.5
20260508234648 69 313 5.0 6.0 0.00 0.00 0.90 97 1011.5
20260508234147 69 19 3.0 6.0 0.00 0.00 0.90 97 1011.9
20260508233647 69 39 3.0 6.0 0.00 0.00 0.90 98 1011.9
20260508233148 69 349 3.0 5.0 0.00 0.00 0.90 98 1011.9
20260508232649 69 84 3.0 3.0 0.00 0.00 0.90 98 1011.5
20260508232146 69 346 5.0 7.0 0.00 0.00 0.90 98 1011.9
20260508231648 69 173 3.0 5.0 0.00 0.00 0.90 98 1011.5
20260508231147 69 347 3.0 5.0 0.00 0.00 0.90 98 1011.5
20260508230647 69 277 3.0 5.0 0.00 0.00 0.90 98 1011.5
20260508230148 69 59 4.0 7.0 0.00 0.00 0.90 98 1011.5
20260508225647 68 52 5.0 7.0 0.00 0.00 0.90 98 1011.5
20260508225149 68 135 6.0 8.0 0.02 0.00 0.90 98 1011.9
20260508224646 68 233 4.0 7.0 0.09 0.00 0.90 98 1011.9
20260508224147 68 200 1.0 9.0 0.24 0.00 0.89 98 1011.9
20260508223647 68 72 4.0 9.0 0.19 0.00 0.88 98 1011.9
20260508223146 68 39 2.0 9.0 0.05 0.00 0.85 98 1011.9
20260508222648 68 21 4.0 6.0 0.00 0.00 0.85 98 1011.9
20260508222147 68 289 2.0 8.0 0.00 0.00 0.85 98 1011.5
20260508221647 68 186 2.0 8.0 0.00 0.00 0.85 98 1011.9
20260508221151 68 10 5.0 10.0 0.00 0.00 0.85 98 1011.9
20260508220647 68 165 4.0 8.0 0.02 0.00 0.85 98 1011.9
20260508220147 68 64 7.0 11.0 0.07 0.00 0.85 98 1011.9
20260508215647 68 85 5.0 11.0 0.12 0.00 0.84 98 1011.9
20260508215148 68 73 8.0 13.0 0.05 0.00 0.83 98 1012.2
20260508214647 68 64 10.0 13.0 0.00 0.00 0.82 98 1012.5
20260508214147 68 40 4.0 9.0 0.00 0.00 0.82 98 1012.2
20260508213646 68 22 3.0 11.0 0.02 0.00 0.82 98 1012.9
20260508213148 68 49 7.0 14.0 0.02 0.00 0.82 98 1012.9
20260508212649 68 45 5.0 10.0 0.02 0.00 0.82 99 1012.9
20260508212146 68 19 6.0 14.0 0.07 0.00 0.82 99 1013.2
20260508211647 68 20 5.0 11.0 0.21 0.00 0.81 99 1013.2
20260508211148 68 56 6.0 14.0 0.59 0.00 0.81 99 1013.2
20260508210647 68 41 4.0 18.0 0.69 0.00 0.77 99 1013.2
20260508210148 68 20 11.0 13.0 0.57 0.00 0.71 98 1013.2
20260508205647 68 42 3.0 13.0 0.73 0.00 0.65 98 1013.9
20260508205149 68 342 12.0 13.0 1.16 0.00 0.61 98 1013.2
20260508204646 68 28 14.0 21.0 1.39 0.00 0.52 97 1012.5
20260508204146 68 30 13.0 18.0 1.91 0.00 0.41 97 1013.2
20260508203647 69 48 5.0 14.0 1.56 0.00 0.26 96 1012.5
20260508203146 69 28 9.0 18.0 0.31 0.00 0.05 93 1012.9
20260508202646 70 348 5.0 20.0 0.00 0.00 0.00 91 1012.5
20260508202147 70 37 9.0 27.0 0.00 0.00 0.00 90 1012.2
20260508201647 70 29 5.0 19.0 0.00 0.00 0.00 89 1011.9
20260508201147 70 58 8.0 24.0 0.00 0.00 0.00 89 1012.2
20260508200649 71 15 9.0 22.0 0.00 0.00 0.00 89 1011.9
20260508200147 72 43 9.0 19.0 0.00 0.00 0.00 88 1011.9
20260508195649 72 51 11.0 23.0 0.00 0.00 0.00 89 1012.2
20260508195149 73 35 9.0 17.0 0.00 0.00 0.00 88 1012.2
20260508194651 74 53 15.0 23.0 0.00 0.00 0.00 87 1012.2
20260508194148 75 52 10.0 18.0 0.00 0.00 0.00 87 1012.2
20260508193648 74 54 10.0 15.0 0.00 0.00 0.00 88 1012.5
20260508193146 74 27 9.0 13.0 0.00 0.00 0.00 88 1012.9
20260508192649 75 47 8.0 11.0 0.00 0.00 0.00 87 1012.9
20260508192153 75 69 7.0 12.0 0.00 0.00 0.00 87 1012.9
20260508191148 76 38 4.0 10.0 0.00 0.00 0.00 86 1012.9
20260508190647 76 50 4.0 14.0 0.00 0.00 0.00 85 1012.9
20260508190151 77 18 6.0 10.0 0.00 0.00 0.00 84 1012.9
20260508185646 77 34 6.0 11.0 0.00 0.00 0.00 84 1012.5
20260508185148 78 63 6.0 9.0 0.00 0.00 0.00 82 1012.5
20260508184647 78 58 5.0 14.0 0.00 0.00 0.00 82 1012.5
20260508184150 78 165 5.0 6.0 0.00 0.00 0.00 83 1012.2
20260508183649 78 129 5.0 12.0 0.00 0.00 0.00 83 1012.2
20260508183147 78 85 5.0 10.0 0.00 0.00 0.00 82 1012.2
20260508182647 77 81 7.0 8.0 0.00 0.00 0.00 83 1012.5
20260508182148 78 66 9.0 11.0 0.00 0.00 0.00 82 1012.5
20260508181650 78 59 6.0 9.0 0.00 0.00 0.00 81 1012.5
20260508181146 78 125 2.0 12.0 0.00 0.00 0.00 81 1012.5
20260508180648 78 114 3.0 10.0 0.00 0.00 0.00 81 1012.2
20260508180148 79 68 10.0 13.0 0.00 0.00 0.00 79 1012.5
20260508175649 79 62 4.0 10.0 0.00 0.00 0.00 80 1012.2
20260508175147 78 96 4.0 11.0 0.00 0.00 0.00 80 1012.2
20260508174652 78 39 4.0 11.0 0.00 0.00 0.00 80 1012.2
20260508174148 78 101 3.0 12.0 0.00 0.00 0.00 79 1012.5
20260508173647 78 79 8.0 10.0 0.00 0.00 0.00 80 1012.5
20260508173148 77 93 3.0 11.0 0.00 0.00 0.00 81 1012.9
20260508172647 78 72 9.0 13.0 0.00 0.00 0.00 80 1012.9
20260508172148 77 65 6.0 10.0 0.00 0.00 0.00 82 1012.9
20260508171648 77 60 8.0 10.0 0.00 0.00 0.00 82 1012.9
20260508171147 77 76 6.0 11.0 0.00 0.00 0.00 81 1012.9
20260508170650 78 43 4.0 13.0 0.00 0.00 0.00 81 1012.9
20260508170148 77 198 1.0 8.0 0.00 0.00 0.00 83 1012.9
20260508165649 78 165 2.0 9.0 0.00 0.00 0.00 81 1012.9
20260508165148 77 146 5.0 10.0 0.00 0.00 0.00 82 1013.2
20260508164651 77 171 3.0 7.0 0.00 0.00 0.00 83 1013.2
20260508164150 76 113 3.0 7.0 0.00 0.00 0.00 84 1012.9
20260508163651 76 93 5.0 9.0 0.00 0.00 0.00 84 1013.2
20260508162730 76 59 6.0 8.0 0.00 0.00 0.00 82 1013.2
20260508162149 75 137 4.0 8.0 0.00 0.00 0.00 85 1013.2
20260508161649 75 99 7.0 15.0 0.00 0.00 0.00 84 1013.2
20260508161149 75 71 6.0 13.0 0.00 0.00 0.00 85 1013.2
20260508160649 75 69 8.0 10.0 0.00 0.00 0.00 84 1013.2
20260508160149 75 66 9.0 11.0 0.00 0.00 0.00 85 1013.5
20260508155648 74 203 0.0 7.0 0.00 0.00 0.00 85 1013.5
20260508155148 75 75 5.0 5.0 0.00 0.00 0.00 85 1013.9
20260508154649 73 345 3.0 8.0 0.00 0.00 0.00 86 1013.9
20260508154149 73 69 4.0 10.0 0.00 0.00 0.00 86 1013.9
20260508153648 73 42 3.0 9.0 0.00 0.00 0.00 87 1013.9
20260508153148 73 62 7.0 10.0 0.00 0.00 0.00 87 1013.9
20260508152650 73 71 2.0 5.0 0.00 0.00 0.00 87 1013.9
20260508152149 72 138 2.0 8.0 0.00 0.00 0.00 88 1013.9
20260508151649 73 84 6.0 11.0 0.00 0.00 0.00 87 1013.5
20260508151147 73 91 4.0 6.0 0.00 0.00 0.00 87 1013.9
20260508150649 72 60 5.0 8.0 0.00 0.00 0.00 87 1013.5
20260508150151 72 73 5.0 11.0 0.00 0.00 0.00 88 1013.5
20260508145647 72 84 5.0 10.0 0.00 0.00 0.00 87 1013.9
20260508145149 72 55 5.0 9.0 0.00 0.00 0.00 86 1013.9
20260508144646 72 70 5.0 7.0 0.00 0.00 0.00 86 1013.9
20260508144146 72 65 7.0 11.0 0.00 0.00 0.00 85 1013.5
20260508143647 73 69 5.0 12.0 0.00 0.00 0.00 84 1013.5
20260508143147 72 64 7.0 13.0 0.00 0.00 0.00 85 1013.5
20260508142648 72 77 9.0 14.0 0.00 0.00 0.00 86 1013.5
20260508142148 72 61 9.0 9.0 0.00 0.00 0.00 85 1013.2
20260508141649 72 83 5.0 11.0 0.00 0.00 0.00 84 1013.5
20260508141149 72 63 10.0 11.0 0.00 0.00 0.00 85 1013.5
20260508140649 71 62 9.0 13.0 0.00 0.00 0.00 86 1013.5
20260508140150 71 78 6.0 7.0 0.00 0.00 0.00 86 1013.9
20260508135648 71 64 9.0 13.0 0.00 0.00 0.00 86 1013.5
20260508135147 71 62 7.0 9.0 0.00 0.00 0.00 86 1013.5
20260508134649 70 77 5.0 11.0 0.00 0.00 0.00 87 1013.5
20260508134149 70 82 5.0 14.0 0.00 0.00 0.00 87 1013.9
20260508133648 70 70 5.0 9.0 0.00 0.00 0.00 86 1013.9
20260508133149 70 65 6.0 12.0 0.00 0.00 0.00 86 1013.9
20260508132648 70 60 6.0 11.0 0.00 0.00 0.00 86 1013.9
20260508132149 70 37 7.0 8.0 0.00 0.00 0.00 87 1013.9
20260508131648 70 44 4.0 10.0 0.00 0.00 0.00 87 1013.9
20260508131148 70 49 6.0 12.0 0.00 0.00 0.00 87 1013.9
20260508130647 70 55 10.0 12.0 0.00 0.00 0.00 87 1013.9
20260508130151 70 40 4.0 6.0 0.00 0.00 0.00 88 1014.2
20260508125647 70 50 10.0 13.0 0.00 0.00 0.00 88 1014.2
20260508125148 70 24 7.0 12.0 0.00 0.00 0.00 88 1014.2
20260508124649 70 4 5.0 8.0 0.00 0.00 0.00 88 1014.6
20260508124146 70 40 9.0 14.0 0.00 0.00 0.00 87 1014.6
20260508123651 70 39 6.0 9.0 0.00 0.00 0.00 87 1014.6
20260508123149 70 348 4.0 6.0 0.00 0.00 0.00 87 1014.6
20260508122652 70 85 3.0 8.0 0.00 0.00 0.00 87 1014.2
20260508122149 70 41 6.0 10.0 0.00 0.00 0.00 88 1014.2
20260508121649 70 18 5.0 7.0 0.00 0.00 0.00 88 1014.2
20260508121149 70 54 7.0 9.0 0.00 0.00 0.00 88 1014.2